Regional Weather Roundup
Issued by NWS

Home | Current Version | Previous Version | Text Only | Print | Product List | Glossary Off
Versions: 1 2 3 4 5 6 7 8 9 10 11 12 13 14 15 16 17 18 19 20 21 22 23 24 25 26 27 28 29 30 31 32 33 34 35 36 37 38 39 40 41 42 43 44 45 46 47 48 49 50

000
ASUS43 KDMX 230707
RWRIA

WEATHER ROUNDUP FOR IOWA
NATIONAL WEATHER SERVICE DES MOINES IA
200 AM CDT WED JUL 23 2014

NOTE: "FAIR" INDICATES FEW OR NO CLOUDS BELOW 12,000 FEET WITH NO
SIGNIFICANT WEATHER AND/OR OBSTRUCTIONS TO VISIBILITY.

* - THESE STATIONS ARE NOT NWS STATIONS...THUS NOT UNDER NWS
QUALITY CONTROL.  THEY ALSO DO NOT REPORT WEATHER SUCH
AS PRECIPITATION OR FOG.

IAZ001>003-012>014-020>022-031>034-043>046-230800-
   NORTHWEST IOWA

CITY           SKY/WX    TMP DP  RH WIND       PRES   REMARKS
CARROLL *      CLEAR     64  59  82 N8        30.19S
CHEROKEE *     CLEAR     63  59  88 N3        30.23R
DENISON *      CLEAR     66  59  77 N6        30.19R
LE MARS *      CLEAR     64  59  82 N7        30.22F
ORANGE CITY *  CLEAR     68  57  68 N9        30.23S
SHELDON *      CLEAR     59  57  94 NW3       30.23S
SIOUX CITY     CLEAR     66  59  78 N6        30.22R
SPENCER        CLEAR     60  56  86 N7        30.23R
STORM LAKE *   CLEAR     63  59  88 N8        30.23R
$$

IAZ055>058-069>071-079>083-090>094-230800-
   SOUTHWEST IOWA

CITY           SKY/WX    TMP DP  RH WIND       PRES   REMARKS
ATLANTIC *     CLEAR     66  61  82 NE3       30.18S
AUDUBON *      CLEAR     68  63  83 N6        30.20S
CLARINDA *     CLEAR     68  66  94 N3        30.17S
COUNCIL BLFS *   N/A     68  64  88 N8        30.18S
CRESTON *      CLEAR     70  64  83 N13       30.16R
HARLAN  *      CLEAR     66  61  82 N7        30.23R
LAMONI         CLEAR     70  67  90 N7        30.13S
RED OAK *      CLEAR     66  64  94 N7        30.17S
SHENANDOAH *   CLEAR     68  66  94 N5        30.17R
$$

IAZ047>049-059>061-072>074-084-230800-
   CENTRAL IOWA

CITY           SKY/WX    TMP DP  RH WIND       PRES   REMARKS
AMES           CLEAR     68  61  78 N10       30.16R
ANKENY *       CLEAR     70  63  78 N8        30.14S
CHARITON *     CLEAR     70  66  88 N7        30.13R
DES MOINES     CLEAR     74  61  63 N10       30.14R
GRINNELL*      CLEAR     68  64  88 N7        30.13R
KNOXVILLE *    CLEAR     73  64  73 N9        30.11R
MARSHALLTOWN   CLEAR     66  63  90 N9        30.14R
PELLA *        CLEAR     70  66  88 N6        30.13R
PERRY *          N/A     66  61  82 N7        30.17S
$$

IAZ004>006-015-016-023>025-035-036-230800-
   NORTH CENTRAL IOWA

CITY           SKY/WX    TMP DP  RH WIND       PRES   REMARKS
ALGONA *       CLEAR     63  57  82 N6        30.20S
CLARION *      CLEAR     61  59  94 N5        30.18R
ESTHERVILLE    CLEAR     61  55  81 N10       30.21S
FORT DODGE *   CLEAR     64  57  77 N5        30.20R
MASON CITY     CLEAR     61  57  87 NW7       30.19R
FOREST CITY *  CLEAR     63  57  82 N6        30.19R
IOWA FALLS *     N/A     66  59  77 N6        30.17S
$$

IAZ007>011-017>019-026>030-037>042-050>054-066-230800-
   NORTHEAST IOWA

CITY           SKY/WX    TMP DP  RH WIND       PRES   REMARKS
CEDAR RAPIDS   CLEAR     69  64  84 N7        30.09R
CHARLES CITY * CLEAR     64  61  88 N6        30.16R
DECORAH *      CLEAR     68  63  83 N6        30.14R
DUBUQUE        CLEAR     71  63  75 N12       30.11R
MONTICELLO *   CLEAR     68  66  94 N5        30.10R
OELWEIN *      CLEAR     64  63  94 NW6       30.14R
WATERLOO       CLEAR     66  63  90 NW6       30.12R
$$

IAZ064-065-067-068-078-230800-
   EAST CENTRAL IOWA

CITY           SKY/WX    TMP DP  RH WIND       PRES   REMARKS
DAVENPORT      CLEAR     70  67  90 N9        30.08R
IOWA CITY      CLEAR     74  66  76 N9        30.10R
MT. PLEASANT * CLEAR     73  70  88 N8        30.08S
MUSCATINE *    CLEAR     73  68  83 N7        30.07S
QUAD CITIES    CLEAR     76  67  73 N8        30.06R
$$

IAZ062-063-075>077-085>089-095>099-230800-
   SOUTHEAST IOWA

CITY           SKY/WX    TMP DP  RH WIND       PRES   REMARKS
BURLINGTON     CLEAR     75  71  87 N9        30.06R
FAIRFIELD *    CLEAR     70  66  88 N6        30.10R
FORT MADISON * CLEAR     75  72  88 N8        30.07S
KEOKUK *       CLEAR     75  72  88 N8        30.05S
OSKALOOSA *      N/A     68  66  94 NW6       30.11S
CENTERVILLE *  CLEAR     72  68  88 N6        30.13R
OTTUMWA        CLEAR     68  65  90 NW6       30.10S
WASHINGTON *   CLEAR     72  68  88 N8        30.09R
$$

ABBREVIATIONS USED IN REMARKS
   TC - TEMPERATURES IN CELSIUS
  WCI - WIND CHILL INDEX
   HX - HEAT INDEX
  VSB - VISIBILITY
$$



USA.gov is the U.S. government's official web portal to all federal, state and local government web resources and services.